Time,TemperatureF,DewpointF,PressureIn,WindDirection,WindDirectionDegrees,WindSpeedMPH,WindSpeedGustMPH,Humidity,HourlyPrecipIn,Conditions,Clouds,dailyrainin,SolarRadiationWatts/m^2,SoftwareType,DateUTC
2013-06-16 00:01:00,79.0,68.0,-100.00,SE,133,4.0,10.0,70,0.00,,,0.00,0.000000,,2013-06-16 05:01:00,
2013-06-16 00:34:00,78.0,69.0,-100.00,SE,134,5.0,10.0,73,0.00,,,-99.99,0.000000,,2013-06-16 05:34:00,
2013-06-16 00:43:00,78.0,69.0,-100.00,SE,134,5.0,10.0,73,0.00,,,-99.99,0.000000,,2013-06-16 05:43:00,
2013-06-16 00:52:00,78.0,69.0,-100.00,SE,134,5.0,10.0,73,0.00,,,-99.99,0.000000,,2013-06-16 05:52:00,
2013-06-16 01:01:00,78.0,69.0,-100.00,SE,134,5.0,10.0,73,0.00,,,-99.99,0.000000,,2013-06-16 06:01:00,
2013-06-16 01:33:00,78.0,70.0,-100.00,SE,133,5.0,11.0,77,0.00,,,0.00,0.000000,,2013-06-16 06:33:00,
2013-06-16 01:43:00,78.0,70.0,-100.00,SE,133,5.0,11.0,77,0.00,,,0.00,0.000000,,2013-06-16 06:43:00,
2013-06-16 01:52:00,78.0,70.0,-100.00,SE,133,5.0,11.0,77,0.00,,,0.00,0.000000,,2013-06-16 06:52:00,
2013-06-16 02:01:00,78.0,70.0,-100.00,SE,133,5.0,11.0,77,0.00,,,0.00,0.000000,,2013-06-16 07:01:00,
2013-06-16 02:33:00,77.0,71.0,-100.00,SE,126,5.0,10.0,81,0.00,,,0.00,0.000000,,2013-06-16 07:33:00,
2013-06-16 02:43:00,77.0,71.0,-100.00,SE,126,5.0,10.0,81,0.00,,,0.00,0.000000,,2013-06-16 07:43:00,
2013-06-16 02:53:00,77.0,71.0,-100.00,SE,126,5.0,10.0,81,0.00,,,0.00,0.000000,,2013-06-16 07:53:00,
2013-06-16 03:02:00,77.0,71.0,-100.00,SE,126,5.0,10.0,81,0.00,,,0.00,0.000000,,2013-06-16 08:02:00,
2013-06-16 03:34:00,76.0,71.0,-100.00,SE,131,4.0,10.0,85,0.00,,,0.00,0.000000,,2013-06-16 08:34:00,
2013-06-16 03:43:00,76.0,71.0,-100.00,SE,131,4.0,10.0,85,0.00,,,0.00,0.000000,,2013-06-16 08:43:00,
2013-06-16 03:54:00,76.0,71.0,-100.00,SE,131,4.0,10.0,85,0.00,,,0.00,0.000000,,2013-06-16 08:54:00,
2013-06-16 04:01:00,76.0,71.0,-100.00,SE,131,4.0,10.0,85,0.00,,,0.00,0.000000,,2013-06-16 09:01:00,
2013-06-16 04:33:00,76.0,72.0,-100.00,SE,146,7.0,10.0,86,0.00,,,0.00,0.000000,,2013-06-16 09:33:00,
2013-06-16 04:43:00,76.0,72.0,-100.00,SE,146,7.0,10.0,86,0.00,,,0.00,0.000000,,2013-06-16 09:43:00,
2013-06-16 04:52:00,76.0,72.0,-100.00,SE,146,7.0,10.0,86,0.00,,,0.00,0.000000,,2013-06-16 09:52:00,
2013-06-16 05:01:00,76.0,72.0,-100.00,SE,146,7.0,10.0,86,0.00,,,0.00,0.000000,,2013-06-16 10:01:00,
2013-06-16 05:33:00,77.0,71.0,-100.00,SSE,156,7.0,12.0,83,0.00,,,0.00,0.000000,,2013-06-16 10:33:00,
2013-06-16 05:43:00,77.0,71.0,-100.00,SSE,156,7.0,12.0,83,0.00,,,0.00,0.000000,,2013-06-16 10:43:00,
2013-06-16 05:54:00,77.0,71.0,-100.00,SSE,156,7.0,12.0,83,0.00,,,0.00,0.000000,,2013-06-16 10:54:00,
2013-06-16 06:02:00,77.0,71.0,-100.00,SSE,156,7.0,12.0,83,0.00,,,0.00,0.000000,,2013-06-16 11:02:00,
2013-06-16 06:34:00,77.0,70.0,-100.00,South,187,5.0,12.0,78,0.00,,,0.00,0.000000,,2013-06-16 11:34:00,
2013-06-16 06:43:00,77.0,70.0,-100.00,South,187,5.0,12.0,78,0.00,,,0.00,0.000000,,2013-06-16 11:43:00,
2013-06-16 06:53:00,77.0,70.0,-100.00,South,187,5.0,12.0,78,0.00,,,0.00,0.000000,,2013-06-16 11:53:00,
2013-06-16 07:02:00,77.0,70.0,-100.00,South,187,5.0,12.0,78,0.00,,,0.00,0.000000,,2013-06-16 12:02:00,
2013-06-16 07:33:00,77.0,70.0,-100.00,SSW,195,5.0,9.0,78,0.00,,,0.00,10.000000,,2013-06-16 12:33:00,
2013-06-16 07:43:00,77.0,70.0,-100.00,SSW,195,5.0,9.0,78,0.00,,,0.00,10.000000,,2013-06-16 12:43:00,
2013-06-16 07:53:00,77.0,70.0,-100.00,SSW,195,5.0,9.0,78,0.00,,,0.00,10.000000,,2013-06-16 12:53:00,
2013-06-16 08:01:00,77.0,70.0,-100.00,SSW,195,5.0,9.0,78,0.00,,,0.00,10.000000,,2013-06-16 13:01:00,
2013-06-16 08:34:00,78.0,70.0,-100.00,South,188,4.0,8.0,76,0.00,,,0.00,60.000000,,2013-06-16 13:34:00,
2013-06-16 08:43:00,78.0,70.0,-100.00,South,188,4.0,8.0,76,0.00,,,0.00,60.000000,,2013-06-16 13:43:00,
2013-06-16 08:53:00,78.0,70.0,-100.00,South,188,4.0,8.0,76,0.00,,,0.00,60.000000,,2013-06-16 13:53:00,
2013-06-16 09:02:00,78.0,70.0,-100.00,South,188,4.0,8.0,76,0.00,,,0.00,60.000000,,2013-06-16 14:02:00,
2013-06-16 09:34:00,83.0,71.0,-100.00,SSW,201,6.0,10.0,68,0.00,,,0.00,241.000000,,2013-06-16 14:34:00,
2013-06-16 09:44:00,83.0,71.0,-100.00,SSW,201,6.0,10.0,68,0.00,,,0.00,241.000000,,2013-06-16 14:44:00,
2013-06-16 09:52:00,83.0,71.0,-100.00,SSW,201,6.0,10.0,68,0.00,,,0.00,241.000000,,2013-06-16 14:52:00,
2013-06-16 10:02:00,83.0,71.0,-100.00,SSW,201,6.0,10.0,68,0.00,,,0.00,241.000000,,2013-06-16 15:02:00,
2013-06-16 10:34:00,87.0,70.0,-100.00,SSW,213,6.0,11.0,58,0.00,,,0.00,553.000000,,2013-06-16 15:34:00,
2013-06-16 10:43:00,87.0,70.0,-100.00,SSW,213,6.0,11.0,58,0.00,,,0.00,553.000000,,2013-06-16 15:43:00,
2013-06-16 10:53:00,87.0,70.0,-100.00,SSW,213,6.0,11.0,58,0.00,,,0.00,553.000000,,2013-06-16 15:53:00,
2013-06-16 11:02:00,87.0,70.0,-100.00,SSW,213,6.0,11.0,58,0.00,,,0.00,553.000000,,2013-06-16 16:02:00,
2013-06-16 11:33:00,91.0,70.0,-100.00,SSW,203,6.0,12.0,51,0.00,,,0.00,739.000000,,2013-06-16 16:33:00,
2013-06-16 11:43:00,91.0,70.0,-100.00,SSW,203,6.0,12.0,51,0.00,,,0.00,739.000000,,2013-06-16 16:43:00,
2013-06-16 11:53:00,91.0,70.0,-100.00,SSW,203,6.0,12.0,51,0.00,,,0.00,739.000000,,2013-06-16 16:53:00,
2013-06-16 12:02:00,91.0,70.0,-100.00,SSW,203,6.0,12.0,51,0.00,,,0.00,739.000000,,2013-06-16 17:02:00,
2013-06-16 12:34:00,93.0,70.0,-100.00,South,191,5.0,12.0,47,0.00,,,-99.99,885.000000,,2013-06-16 17:34:00,
2013-06-16 12:43:00,93.0,70.0,-100.00,South,191,5.0,12.0,47,0.00,,,-99.99,885.000000,,2013-06-16 17:43:00,
2013-06-16 12:53:00,93.0,70.0,-100.00,South,191,5.0,12.0,47,0.00,,,-99.99,885.000000,,2013-06-16 17:53:00,
2013-06-16 13:02:00,93.0,70.0,-100.00,South,191,5.0,12.0,47,0.00,,,-99.99,885.000000,,2013-06-16 18:02:00,
2013-06-16 13:34:00,94.0,71.0,-100.00,SSW,205,7.0,12.0,48,0.00,,,0.00,711.000000,,2013-06-16 18:34:00,
2013-06-16 13:43:00,94.0,71.0,-100.00,SSW,205,7.0,12.0,48,0.00,,,0.00,711.000000,,2013-06-16 18:43:00,
2013-06-16 13:52:00,94.0,71.0,-100.00,SSW,205,7.0,12.0,48,0.00,,,0.00,711.000000,,2013-06-16 18:52:00,
2013-06-16 14:01:00,94.0,71.0,-100.00,SSW,205,7.0,12.0,48,0.00,,,0.00,711.000000,,2013-06-16 19:01:00,
2013-06-16 14:34:00,94.0,68.0,-100.00,SSE,154,7.0,17.0,43,0.00,,,0.00,821.000000,,2013-06-16 19:34:00,
2013-06-16 14:43:00,94.0,68.0,-100.00,SSE,154,7.0,17.0,43,0.00,,,0.00,821.000000,,2013-06-16 19:43:00,
2013-06-16 14:53:00,94.0,68.0,-100.00,SSE,154,7.0,17.0,43,0.00,,,0.00,821.000000,,2013-06-16 19:53:00,
2013-06-16 15:02:00,94.0,68.0,-100.00,SSE,154,7.0,17.0,43,0.00,,,0.00,821.000000,,2013-06-16 20:02:00,
2013-06-16 15:33:00,96.0,70.0,-100.00,South,174,6.0,14.0,43,0.00,,,0.00,765.000000,,2013-06-16 20:33:00,
2013-06-16 15:43:00,96.0,70.0,-100.00,South,174,6.0,14.0,43,0.00,,,0.00,765.000000,,2013-06-16 20:43:00,
2013-06-16 15:53:00,96.0,70.0,-100.00,South,174,6.0,14.0,43,0.00,,,0.00,765.000000,,2013-06-16 20:53:00,
2013-06-16 16:01:00,96.0,70.0,-100.00,South,174,6.0,14.0,43,0.00,,,0.00,765.000000,,2013-06-16 21:01:00,
2013-06-16 16:33:00,96.0,67.0,-100.00,South,172,9.0,15.0,39,0.00,,,0.00,873.000000,,2013-06-16 21:33:00,
2013-06-16 16:42:00,96.0,67.0,-100.00,South,172,9.0,15.0,39,0.00,,,0.00,873.000000,,2013-06-16 21:42:00,
2013-06-16 16:53:00,96.0,67.0,-100.00,South,172,9.0,15.0,39,0.00,,,0.00,873.000000,,2013-06-16 21:53:00,
2013-06-16 17:01:00,96.0,67.0,-100.00,South,172,9.0,15.0,39,0.00,,,0.00,873.000000,,2013-06-16 22:01:00,
2013-06-16 18:32:00,96.0,64.0,-100.00,SSE,150,8.0,13.0,35,-99.99,,,-99.99,406.000000,,2013-06-16 23:32:00,
2013-06-16 18:42:00,96.0,64.0,-100.00,SSE,150,8.0,13.0,35,-99.99,,,-99.99,406.000000,,2013-06-16 23:42:00,
2013-06-16 18:52:00,96.0,64.0,-100.00,SSE,150,8.0,13.0,35,-99.99,,,-99.99,406.000000,,2013-06-16 23:52:00,
2013-06-16 19:02:00,96.0,64.0,-100.00,SSE,150,8.0,13.0,35,-99.99,,,-99.99,406.000000,,2013-06-17 00:02:00,
2013-06-16 19:32:00,94.0,64.0,-100.00,SSE,159,7.0,13.0,37,0.00,,,0.00,321.000000,,2013-06-17 00:32:00,
2013-06-16 19:43:00,94.0,64.0,-100.00,SSE,159,7.0,13.0,37,0.00,,,0.00,321.000000,,2013-06-17 00:43:00,
2013-06-16 19:52:00,94.0,64.0,-100.00,SSE,159,7.0,13.0,37,0.00,,,0.00,321.000000,,2013-06-17 00:52:00,
2013-06-16 20:02:00,94.0,64.0,-100.00,SSE,159,7.0,13.0,37,0.00,,,0.00,321.000000,,2013-06-17 01:02:00,
2013-06-16 20:32:00,90.0,62.0,-100.00,SSE,150,6.0,11.0,39,0.00,,,0.00,128.000000,,2013-06-17 01:32:00,
2013-06-16 20:43:00,90.0,62.0,-100.00,SSE,150,6.0,11.0,39,0.00,,,0.00,128.000000,,2013-06-17 01:43:00,
2013-06-16 20:53:00,90.0,62.0,-100.00,SSE,150,6.0,11.0,39,0.00,,,0.00,128.000000,,2013-06-17 01:53:00,
2013-06-16 21:02:00,90.0,62.0,-100.00,SSE,150,6.0,11.0,39,0.00,,,0.00,128.000000,,2013-06-17 02:02:00,
2013-06-16 21:34:00,86.0,64.0,-100.00,SE,141,4.0,9.0,48,0.00,,,0.00,9.000000,,2013-06-17 02:34:00,
2013-06-16 21:43:00,86.0,64.0,-100.00,SE,141,4.0,9.0,48,0.00,,,0.00,9.000000,,2013-06-17 02:43:00,
2013-06-16 21:53:00,86.0,64.0,-100.00,SE,141,4.0,9.0,48,0.00,,,0.00,9.000000,,2013-06-17 02:53:00,
2013-06-16 22:02:00,86.0,64.0,-100.00,SE,141,4.0,9.0,48,0.00,,,0.00,9.000000,,2013-06-17 03:02:00,
2013-06-16 22:33:00,85.0,66.0,-100.00,SE,143,5.0,7.0,54,0.00,,,0.00,0.000000,,2013-06-17 03:33:00,
2013-06-16 22:44:00,85.0,66.0,-100.00,SE,143,5.0,7.0,54,0.00,,,0.00,0.000000,,2013-06-17 03:44:00,
2013-06-16 22:54:00,85.0,66.0,-100.00,SE,143,5.0,7.0,54,0.00,,,0.00,0.000000,,2013-06-17 03:54:00,
2013-06-16 23:02:00,85.0,66.0,-100.00,SE,143,5.0,7.0,54,0.00,,,0.00,0.000000,,2013-06-17 04:02:00,
2013-06-16 23:34:00,84.0,67.0,-100.00,SE,145,6.0,9.0,56,0.00,,,0.00,0.000000,,2013-06-17 04:34:00,
2013-06-16 23:43:00,84.0,67.0,-100.00,SE,145,6.0,9.0,56,0.00,,,0.00,0.000000,,2013-06-17 04:43:00,
2013-06-16 23:53:00,84.0,67.0,-100.00,SE,145,6.0,9.0,56,0.00,,,0.00,0.000000,,2013-06-17 04:53:00,